Weather History for Hollywood, FL

Change the Weather History Date:

Saturday, August 31, 2013

  Actual Average (KFLL) Record (KFLL)
Temperature  
Mean Temperature 82 °F 84 °F  
Max Temperature 93 °F 90 °F 98 °F (1964)
Min Temperature 71 °F 78 °F 69 °F (1923)
Degree Days  
Heating Degree Days 0 0  
Month to date heating degree days 0  
Since 1 June heating degree days 0  
Since 1 July heating degree days 0  
Cooling Degree Days 17 19  
Month to date cooling degree days 607  
Year to date cooling degree days 3166  
Since 1 June cooling degree days 1748  
Growing Degree Days 32 (Base 50)    
Moisture  
Dew Point 72 °F    
Average Humidity 78    
Maximum Humidity 97    
Minimum Humidity 49    
Precipitation  
Precipitation 0.27 in 0.28 in 2.29 in (2000)
Month to date precipitation 7.44  
Year to date precipitation 41.07  
Snow  
Snow 0.00 in - - ()
Month to date snowfall  
Since 1 June snowfall  
Since 1 July snowfall  
Snow Depth -    
Sea Level Pressure  
Sea Level Pressure 29.99 in    
Wind  
Wind Speed 3 mph (SW)    
Max Wind Speed 17 mph    
Max Gust Speed 26 mph    
Visibility 9 miles    
Events Rain , Thunderstorm    
T = Trace of Precipitation, MM = Missing Value Source: NWS Daily Summary

Daily Weather History Graph

Daily Weather History Graph

Search for Another Location

Airport:

Trip Planner

Search our weather history database for the weather conditions in past years. The results will help you decide how hot, cold, wet, or windy it might be!

Date:

Astronomy

Aug. 31, 2013 Rise Set
Actual Time 7:00 AM EDT 7:41 PM EDT
Civil Twilight 6:37 AM EDT 8:04 PM EDT
Nautical Twilight 6:09 AM EDT 8:32 PM EDT
Astronomical Twilight 5:41 AM EDT 8:59 PM EDT
Moon 2:44 AM EDT (8/31) 4:23 PM EDT (8/31)
Length of Visible Light 13h 27m
Length of Day
12h 40m
Waning Crescent, 21% of the Moon is Illuminated
Aug 31
Waning Crescent
Sep 5
New
Sep 12
First Quarter
Sep 19
Full
Sep 26
Last Quarter

Hourly Weather History & Observations

Time (EDT) Temp. Heat Index Dew Point Humidity Pressure Visibility Wind Dir Wind Speed Gust Speed Precip Events Conditions
12:33 AM 80.6 °F 84.6 °F 71.6 °F 74% 29.99 in 10.0 mi Calm Calm - N/A   Mostly Cloudy
12:53 AM 80.1 °F 83.8 °F 72.0 °F 76% 29.98 in 10.0 mi Calm Calm - N/A   Scattered Clouds
1:53 AM 80.1 °F 84.2 °F 73.0 °F 79% 29.98 in 10.0 mi Calm Calm - N/A   Clear
2:53 AM 79.0 °F - 73.9 °F 84% 29.96 in 10.0 mi SSW 3.5 mph - N/A   Clear
3:53 AM 79.0 °F - 73.9 °F 84% 29.96 in 10.0 mi Calm Calm - N/A   Clear
4:53 AM 77.0 °F - 73.9 °F 90% 29.95 in 10.0 mi Calm Calm - N/A   Clear
5:53 AM 78.1 °F - 73.9 °F 87% 29.96 in 10.0 mi Calm Calm - N/A   Clear
6:53 AM 77.0 °F - 73.9 °F 90% 29.97 in 10.0 mi Calm Calm - N/A   Clear
7:53 AM 79.0 °F - 75.0 °F 88% 29.98 in 10.0 mi Calm Calm - N/A   Clear
8:53 AM 82.9 °F 90.2 °F 75.0 °F 77% 29.99 in 10.0 mi SSW 5.8 mph - N/A   Clear
9:53 AM 84.9 °F 94.1 °F 75.9 °F 74% 29.99 in 10.0 mi SSW 3.5 mph - N/A   Partly Cloudy
10:53 AM 84.9 °F 90.7 °F 72.0 °F 65% 30.01 in 10.0 mi Variable 4.6 mph - N/A   Mostly Cloudy
11:53 AM 88.0 °F 94.7 °F 72.0 °F 59% 30.01 in 10.0 mi Variable 4.6 mph - N/A   Scattered Clouds
12:20 PM 87.8 °F 93.8 °F 71.6 °F 58% 30.00 in 10.0 mi SSW 8.1 mph - N/A Thunderstorm Thunderstorm
12:42 PM 93.2 °F 100.5 °F 71.6 °F 49% 29.99 in 10.0 mi South 8.1 mph - N/A   Scattered Clouds
12:53 PM 89.1 °F 95.0 °F 71.1 °F 55% 29.99 in 10.0 mi SW 3.5 mph - N/A   Mostly Cloudy
1:35 PM 89.6 °F 98.2 °F 73.4 °F 59% 29.98 in 10.0 mi ESE 5.8 mph - N/A Thunderstorm Overcast
1:53 PM 88.0 °F 96.5 °F 73.9 °F 63% 29.98 in 10.0 mi North 4.6 mph - N/A Thunderstorm Overcast
2:53 PM 82.9 °F 86.5 °F 69.1 °F 63% 29.98 in 10.0 mi ENE 8.1 mph 17.3 mph N/A Thunderstorm Overcast
3:26 PM 78.8 °F - 68.0 °F 69% 30.01 in 10.0 mi West 16.1 mph 24.2 mph N/A Thunderstorm Overcast
3:40 PM 75.2 °F - 68.0 °F 78% 30.00 in 10.0 mi WNW 17.3 mph 26.5 mph N/A Thunderstorm Overcast
3:53 PM 73.9 °F - 66.0 °F 76% 30.00 in 10.0 mi WNW 17.3 mph - 0.00 in Rain Light Rain
4:05 PM 71.6 °F - 66.2 °F 83% 29.99 in 1.8 mi NW 4.6 mph - 0.08 in Rain Heavy Rain
4:13 PM 71.6 °F - 68.0 °F 88% 29.99 in 5.0 mi NW 5.8 mph - 0.09 in Rain Light Rain
4:53 PM 73.0 °F - 69.1 °F 87% 29.96 in 5.0 mi SE 6.9 mph - 0.23 in Rain Light Rain
5:53 PM 75.0 °F - 72.0 °F 90% 29.98 in 9.0 mi Calm Calm - 0.03 in Rain Light Rain
6:53 PM 75.9 °F - 73.0 °F 91% 29.97 in 10.0 mi Calm Calm - 0.01 in   Clear
7:53 PM 75.9 °F - 71.1 °F 85% 29.99 in 10.0 mi Calm Calm - N/A   Clear
8:53 PM 73.9 °F - 72.0 °F 93% 30.00 in 10.0 mi Calm Calm - N/A   Clear
9:53 PM 75.0 °F - 72.0 °F 90% 30.01 in 10.0 mi Calm Calm - N/A   Clear
10:53 PM 73.9 °F - 73.0 °F 97% 30.00 in 10.0 mi Calm Calm - N/A   Clear
11:53 PM 75.0 °F - 73.0 °F 94% 29.99 in 10.0 mi Calm Calm - N/A   Clear